Regional Weather Roundup
Issued by NWS

Home | Current Version | Previous Version | Graphics & Text | Print | Product List | Glossary On
Versions: 1 2 3 4 5 6 7 8 9 10 11 12 13 14 15 16 17 18 19 20 21 22 23 24 25 26 27 28 29 30 31 32 33 34 35 36 37 38 39 40 41 42 43 44 45 46 47 48 49 50
000
ASUS43 KIND 240500
RWRIN

WEATHER ROUNDUP FOR INDIANA
NATIONAL WEATHER SERVICE INDIANAPOLIS IN
100 AM EDT THU MAY 24 2018

NOTE: "FAIR" INDICATES FEW OR NO CLOUDS BELOW 12,000 FEET WITH NO
SIGNIFICANT WEATHER AND/OR OBSTRUCTIONS TO VISIBILITY.

* - STATION DOES NOT REPORT WEATHER SUCH AS PRECIPITATION OR FOG.

+ - STATION NOT QUALITY CONTROLLED BY THE NATIONAL WEATHER SERVICE.
    USE DATA WITH CAUTION...ESPECIALLY DEWPOINT AND RELATIVE
    HUMIDITY OBSERVATIONS.

INZ001>003-010>013-019-020-240600-
NORTHWEST INDIANA

CITY           SKY/WX    TMP DP  RH WIND       PRES   REMARKS
MONTICELLO +   FAIR      62  55  78 E3        30.18S

$$

LMZ046-743>745-240600-
SOUTHERN LAKE MICHIGAN

STATION/POSITION TIME  TEMP    WIND        PRES    WAVE
                       AIR SEA DIR/SP/G            HT
                 (UTC) (F)     (DEG/KT/KT) (MB)    (FT)
BURNS HARBOR     0440   58        CALM     1023.0R
MICHIGAN CITY    0430   62     100/  3/  4   N/A
5NW MICH CITY    0450   57 57   CALM  /  2   N/A     0

$$

INZ004-005-014>016-021>024-240600-
NORTH CENTRAL INDIANA

CITY           SKY/WX    TMP DP  RH WIND       PRES   REMARKS
GOSHEN         FAIR      58  54  86 CALM      30.20S
SOUTH BEND     FAIR      58  54  86 N3        30.21S

$$

INZ006>009-017-018-025>027-240600-
NORTHEAST INDIANA

CITY           SKY/WX    TMP DP  RH WIND       PRES   REMARKS
ANGOLA *+      FAIR      57  55  94 CALM      30.21S
FORT WAYNE     FAIR      63  53  70 SE6       30.21R
KENDALLVILLE + FAIR      61  50  66 CALM      30.22R

$$

INZ028-029-035-036-043>045-051>053-240600-
WEST CENTRAL INDIANA

CITY           SKY/WX    TMP DP  RH WIND       PRES   REMARKS
CRAWFORDSVL +  FAIR      60  54  80 CALM      30.18S
GREENCASTLE +  FAIR      63  50  63 CALM      30.19R
LAFAYETTE      FAIR      59  54  83 NE3       30.17S
TERRE HAUTE    FAIR      63  55  75 NE5       30.16S

$$

INZ030>032-037>040-046>048-054>057-064-065-240600-
CENTRAL INDIANA

CITY           SKY/WX    TMP DP  RH WIND       PRES   REMARKS
ANDERSON       FAIR      58  54  84 CALM      30.21S
INDIANAPOLIS   FAIR      69  53  56 E7        30.18S
-EAGLE CREEK   FAIR      66  53  63 CALM      30.18S
KOKOMO +       FAIR      62  55  77 E5        30.21R
MT COMFORT *+  FAIR      59  57  94 E3        30.20S
SHELBYVILLE    FAIR      65  55  70 E8        30.18S

$$

INZ033-034-041-042-049-050-058-059-240600-
EAST CENTRAL INDIANA

CITY           SKY/WX    TMP DP  RH WIND       PRES   REMARKS
MUNCIE         FAIR      62  53  72 CALM      30.21R
RICHMOND +     FAIR      59  55  88 NE8       30.22S

$$

INZ060-061-067>069-081>083-085>088-240600-
SOUTHWEST INDIANA

CITY           SKY/WX    TMP DP  RH WIND       PRES   REMARKS
EVANSVILLE     FAIR      70  60  70 NE5       30.13R
HUNTINGBURG +  FAIR      67  59  75 NE7       30.14S

$$

INZ062-063-066-070>080-084-089>092-240600-
SOUTH CENTRAL AND SOUTHEAST INDIANA

CITY           SKY/WX    TMP DP  RH WIND       PRES   REMARKS
BLOOMINGTON    FAIR      62  60  93 CALM      30.17S
FRENCH LICK *+ FAIR      64  50  59 NE6       30.16S
SEYMOUR +      FAIR      66  57  72 E6        30.16F

$$





USA.gov is the U.S. government's official web portal to all federal, state and local government web resources and services.